Aviation Digital Data Service (ADDS)

Output produced by METARs form (0041 UTC 23 February 2018)
found at http://www.aviationweather.gov/adds/metars/
 
ORBD 222355Z 27005KT 5000 BR FEW110 SCT180 12/11 A2986 RMK WND DATA ALSTG ESTMD
TAF COR ORBD 221855Z 2219/2401 17006KT 8000 HZ SCT030 BKN120 QNH2981INS 
     TEMPO 2220/2224 34012KT 5000 BR VCSH OVC070 
     TEMPO 2302/2306 30006KT 4000 BR FEW000 OVC120 BR FEW000 
     BECMG 2308/2310 19012KT 8000 HZ VCSH OVC050 QNH2980INS 
     TEMPO 2315/2401 VRB15G25KT 3200 -SHRA BR VCTS SCT010 OVC020CB TX23/2312Z TN12/2303Z
       
ORBI 230000Z 32006KT 9999 FEW030 SCT100 13/13 Q1011 NOSIG
TAF ORBI 222200Z 2300/2324 30008KT 8000 SCT030 
     BECMG 2302/2304 VRB03KT 5000 BR 
     BECMG 2308/2311 13008KT 7000 SCT040
       
ORER 230000Z VRB02KT 9000 FEW045 BKN090 11/10 Q1012 NOSIG
TAF ORER 222200Z 2300/2324 VRB03KT 8000 SCT030 
     TEMPO 2300/2306 6000 SHRA 
     BECMG 2309/2311 NSC
       
ORMM 230000Z 00000KT CAVOK 11/06 Q1011 NOSIG
TAF ORMM 222200Z 2300/2324 14006KT 9999 NSC
       
ORNI 230000Z 34005KT 8000 NSC 14/12 Q1011 NOSIG
TAF ORNI 222200Z 2300/2324 30008KT 8000 NSC 
     BECMG 2302/2304 VRB03KT 5000 BR 
     BECMG 2308/2311 13008KT 7000
       
ORSU 230000Z 31010KT 7000 BKN040 BKN080 10/10 Q1013
TAF ORSU 222300Z 2300/2400 32006KT 5000 BR BKN040 SCT080 
     TEMPO 2301/2306 3000 SHRA BKN040 BKN070 
     BECMG 2306/2308 16010KT 7000 BKN040 BKN080 
     TEMPO 2312/2318 12010KT 5000 TSSHRA FEW035CB OVC040
       
ORBD 222355Z 27005KT 5000 BR FEW110 SCT180 12/11 A2986 RMK WND DATA ALSTG ESTMD
TAF COR ORBD 221855Z 2219/2401 17006KT 8000 HZ SCT030 BKN120 QNH2981INS 
     TEMPO 2220/2224 34012KT 5000 BR VCSH OVC070 
     TEMPO 2302/2306 30006KT 4000 BR FEW000 OVC120 BR FEW000 
     BECMG 2308/2310 19012KT 8000 HZ VCSH OVC050 QNH2980INS 
     TEMPO 2315/2401 VRB15G25KT 3200 -SHRA BR VCTS SCT010 OVC020CB TX23/2312Z TN12/2303Z
       
ORBI 230000Z 32006KT 9999 FEW030 SCT100 13/13 Q1011 NOSIG
TAF ORBI 222200Z 2300/2324 30008KT 8000 SCT030 
     BECMG 2302/2304 VRB03KT 5000 BR 
     BECMG 2308/2311 13008KT 7000 SCT040
       
ORER 230000Z VRB02KT 9000 FEW045 BKN090 11/10 Q1012 NOSIG
TAF ORER 222200Z 2300/2324 VRB03KT 8000 SCT030 
     TEMPO 2300/2306 6000 SHRA 
     BECMG 2309/2311 NSC
       
ORMM 230000Z 00000KT CAVOK 11/06 Q1011 NOSIG
TAF ORMM 222200Z 2300/2324 14006KT 9999 NSC
       
ORNI 230000Z 34005KT 8000 NSC 14/12 Q1011 NOSIG
TAF ORNI 222200Z 2300/2324 30008KT 8000 NSC 
     BECMG 2302/2304 VRB03KT 5000 BR 
     BECMG 2308/2311 13008KT 7000
       
ORSU 230000Z 31010KT 7000 BKN040 BKN080 10/10 Q1013
TAF ORSU 222300Z 2300/2400 32006KT 5000 BR BKN040 SCT080 
     TEMPO 2301/2306 3000 SHRA BKN040 BKN070 
     BECMG 2306/2308 16010KT 7000 BKN040 BKN080 
     TEMPO 2312/2318 12010KT 5000 TSSHRA FEW035CB OVC040
       
ORBD 222355Z 27005KT 5000 BR FEW110 SCT180 12/11 A2986 RMK WND DATA ALSTG ESTMD
TAF COR ORBD 221855Z 2219/2401 17006KT 8000 HZ SCT030 BKN120 QNH2981INS 
     TEMPO 2220/2224 34012KT 5000 BR VCSH OVC070 
     TEMPO 2302/2306 30006KT 4000 BR FEW000 OVC120 BR FEW000 
     BECMG 2308/2310 19012KT 8000 HZ VCSH OVC050 QNH2980INS 
     TEMPO 2315/2401 VRB15G25KT 3200 -SHRA BR VCTS SCT010 OVC020CB TX23/2312Z TN12/2303Z
       
ORBI 230000Z 32006KT 9999 FEW030 SCT100 13/13 Q1011 NOSIG
TAF ORBI 222200Z 2300/2324 30008KT 8000 SCT030 
     BECMG 2302/2304 VRB03KT 5000 BR 
     BECMG 2308/2311 13008KT 7000 SCT040
       
ORER 230000Z VRB02KT 9000 FEW045 BKN090 11/10 Q1012 NOSIG
TAF ORER 222200Z 2300/2324 VRB03KT 8000 SCT030 
     TEMPO 2300/2306 6000 SHRA 
     BECMG 2309/2311 NSC
       
ORMM 230000Z 00000KT CAVOK 11/06 Q1011 NOSIG
TAF ORMM 222200Z 2300/2324 14006KT 9999 NSC
       
ORNI 230000Z 34005KT 8000 NSC 14/12 Q1011 NOSIG
TAF ORNI 222200Z 2300/2324 30008KT 8000 NSC 
     BECMG 2302/2304 VRB03KT 5000 BR 
     BECMG 2308/2311 13008KT 7000
       
ORSU 230000Z 31010KT 7000 BKN040 BKN080 10/10 Q1013
TAF ORSU 222300Z 2300/2400 32006KT 5000 BR BKN040 SCT080 
     TEMPO 2301/2306 3000 SHRA BKN040 BKN070 
     BECMG 2306/2308 16010KT 7000 BKN040 BKN080 
     TEMPO 2312/2318 12010KT 5000 TSSHRA FEW035CB OVC040
       
ORBD 222355Z 27005KT 5000 BR FEW110 SCT180 12/11 A2986 RMK WND DATA ALSTG ESTMD
TAF COR ORBD 221855Z 2219/2401 17006KT 8000 HZ SCT030 BKN120 QNH2981INS 
     TEMPO 2220/2224 34012KT 5000 BR VCSH OVC070 
     TEMPO 2302/2306 30006KT 4000 BR FEW000 OVC120 BR FEW000 
     BECMG 2308/2310 19012KT 8000 HZ VCSH OVC050 QNH2980INS 
     TEMPO 2315/2401 VRB15G25KT 3200 -SHRA BR VCTS SCT010 OVC020CB TX23/2312Z TN12/2303Z
       
ORBI 230000Z 32006KT 9999 FEW030 SCT100 13/13 Q1011 NOSIG
TAF ORBI 222200Z 2300/2324 30008KT 8000 SCT030 
     BECMG 2302/2304 VRB03KT 5000 BR 
     BECMG 2308/2311 13008KT 7000 SCT040
       
ORER 230000Z VRB02KT 9000 FEW045 BKN090 11/10 Q1012 NOSIG
TAF ORER 222200Z 2300/2324 VRB03KT 8000 SCT030 
     TEMPO 2300/2306 6000 SHRA 
     BECMG 2309/2311 NSC
       
ORMM 230000Z 00000KT CAVOK 11/06 Q1011 NOSIG
TAF ORMM 222200Z 2300/2324 14006KT 9999 NSC
       
ORNI 230000Z 34005KT 8000 NSC 14/12 Q1011 NOSIG
TAF ORNI 222200Z 2300/2324 30008KT 8000 NSC 
     BECMG 2302/2304 VRB03KT 5000 BR 
     BECMG 2308/2311 13008KT 7000
       
ORSU 230000Z 31010KT 7000 BKN040 BKN080 10/10 Q1013
TAF ORSU 222300Z 2300/2400 32006KT 5000 BR BKN040 SCT080 
     TEMPO 2301/2306 3000 SHRA BKN040 BKN070 
     BECMG 2306/2308 16010KT 7000 BKN040 BKN080 
     TEMPO 2312/2318 12010KT 5000 TSSHRA FEW035CB OVC040
       
ORBD 222355Z 27005KT 5000 BR FEW110 SCT180 12/11 A2986 RMK WND DATA ALSTG ESTMD
TAF COR ORBD 221855Z 2219/2401 17006KT 8000 HZ SCT030 BKN120 QNH2981INS 
     TEMPO 2220/2224 34012KT 5000 BR VCSH OVC070 
     TEMPO 2302/2306 30006KT 4000 BR FEW000 OVC120 BR FEW000 
     BECMG 2308/2310 19012KT 8000 HZ VCSH OVC050 QNH2980INS 
     TEMPO 2315/2401 VRB15G25KT 3200 -SHRA BR VCTS SCT010 OVC020CB TX23/2312Z TN12/2303Z
       
ORBI 230000Z 32006KT 9999 FEW030 SCT100 13/13 Q1011 NOSIG
TAF ORBI 222200Z 2300/2324 30008KT 8000 SCT030 
     BECMG 2302/2304 VRB03KT 5000 BR 
     BECMG 2308/2311 13008KT 7000 SCT040
       
ORER 230000Z VRB02KT 9000 FEW045 BKN090 11/10 Q1012 NOSIG
TAF ORER 222200Z 2300/2324 VRB03KT 8000 SCT030 
     TEMPO 2300/2306 6000 SHRA 
     BECMG 2309/2311 NSC
       
ORMM 230000Z 00000KT CAVOK 11/06 Q1011 NOSIG
TAF ORMM 222200Z 2300/2324 14006KT 9999 NSC
       
ORNI 230000Z 34005KT 8000 NSC 14/12 Q1011 NOSIG
TAF ORNI 222200Z 2300/2324 30008KT 8000 NSC 
     BECMG 2302/2304 VRB03KT 5000 BR 
     BECMG 2308/2311 13008KT 7000
       
ORSU 230000Z 31010KT 7000 BKN040 BKN080 10/10 Q1013
TAF ORSU 222300Z 2300/2400 32006KT 5000 BR BKN040 SCT080 
     TEMPO 2301/2306 3000 SHRA BKN040 BKN070 
     BECMG 2306/2308 16010KT 7000 BKN040 BKN080 
     TEMPO 2312/2318 12010KT 5000 TSSHRA FEW035CB OVC040
       
ORMM 230000Z 00000KT CAVOK 11/06 Q1011 NOSIG
TAF ORMM 222200Z 2300/2324 14006KT 9999 NSC
       
ORBD 222355Z 27005KT 5000 BR FEW110 SCT180 12/11 A2986 RMK WND DATA ALSTG ESTMD
TAF COR ORBD 221855Z 2219/2401 17006KT 8000 HZ SCT030 BKN120 QNH2981INS 
     TEMPO 2220/2224 34012KT 5000 BR VCSH OVC070 
     TEMPO 2302/2306 30006KT 4000 BR FEW000 OVC120 BR FEW000 
     BECMG 2308/2310 19012KT 8000 HZ VCSH OVC050 QNH2980INS 
     TEMPO 2315/2401 VRB15G25KT 3200 -SHRA BR VCTS SCT010 OVC020CB TX23/2312Z TN12/2303Z
       
ORBI 230000Z 32006KT 9999 FEW030 SCT100 13/13 Q1011 NOSIG
TAF ORBI 222200Z 2300/2324 30008KT 8000 SCT030 
     BECMG 2302/2304 VRB03KT 5000 BR 
     BECMG 2308/2311 13008KT 7000 SCT040
       
ORER 230000Z VRB02KT 9000 FEW045 BKN090 11/10 Q1012 NOSIG
TAF ORER 222200Z 2300/2324 VRB03KT 8000 SCT030 
     TEMPO 2300/2306 6000 SHRA 
     BECMG 2309/2311 NSC
       
ORMM 230000Z 00000KT CAVOK 11/06 Q1011 NOSIG
TAF ORMM 222200Z 2300/2324 14006KT 9999 NSC
       
ORNI 230000Z 34005KT 8000 NSC 14/12 Q1011 NOSIG
TAF ORNI 222200Z 2300/2324 30008KT 8000 NSC 
     BECMG 2302/2304 VRB03KT 5000 BR 
     BECMG 2308/2311 13008KT 7000
       
ORSU 230000Z 31010KT 7000 BKN040 BKN080 10/10 Q1013
TAF ORSU 222300Z 2300/2400 32006KT 5000 BR BKN040 SCT080 
     TEMPO 2301/2306 3000 SHRA BKN040 BKN070 
     BECMG 2306/2308 16010KT 7000 BKN040 BKN080 
     TEMPO 2312/2318 12010KT 5000 TSSHRA FEW035CB OVC040
       
ORBD 222355Z 27005KT 5000 BR FEW110 SCT180 12/11 A2986 RMK WND DATA ALSTG ESTMD
TAF COR ORBD 221855Z 2219/2401 17006KT 8000 HZ SCT030 BKN120 QNH2981INS 
     TEMPO 2220/2224 34012KT 5000 BR VCSH OVC070 
     TEMPO 2302/2306 30006KT 4000 BR FEW000 OVC120 BR FEW000 
     BECMG 2308/2310 19012KT 8000 HZ VCSH OVC050 QNH2980INS 
     TEMPO 2315/2401 VRB15G25KT 3200 -SHRA BR VCTS SCT010 OVC020CB TX23/2312Z TN12/2303Z
       
ORBI 230000Z 32006KT 9999 FEW030 SCT100 13/13 Q1011 NOSIG
TAF ORBI 222200Z 2300/2324 30008KT 8000 SCT030 
     BECMG 2302/2304 VRB03KT 5000 BR 
     BECMG 2308/2311 13008KT 7000 SCT040
       
ORER 230000Z VRB02KT 9000 FEW045 BKN090 11/10 Q1012 NOSIG
TAF ORER 222200Z 2300/2324 VRB03KT 8000 SCT030 
     TEMPO 2300/2306 6000 SHRA 
     BECMG 2309/2311 NSC
       
ORMM 230000Z 00000KT CAVOK 11/06 Q1011 NOSIG
TAF ORMM 222200Z 2300/2324 14006KT 9999 NSC
       
ORNI 230000Z 34005KT 8000 NSC 14/12 Q1011 NOSIG
TAF ORNI 222200Z 2300/2324 30008KT 8000 NSC 
     BECMG 2302/2304 VRB03KT 5000 BR 
     BECMG 2308/2311 13008KT 7000
       
ORSU 230000Z 31010KT 7000 BKN040 BKN080 10/10 Q1013
TAF ORSU 222300Z 2300/2400 32006KT 5000 BR BKN040 SCT080 
     TEMPO 2301/2306 3000 SHRA BKN040 BKN070 
     BECMG 2306/2308 16010KT 7000 BKN040 BKN080 
     TEMPO 2312/2318 12010KT 5000 TSSHRA FEW035CB OVC040
       
ORBD 222355Z 27005KT 5000 BR FEW110 SCT180 12/11 A2986 RMK WND DATA ALSTG ESTMD
TAF COR ORBD 221855Z 2219/2401 17006KT 8000 HZ SCT030 BKN120 QNH2981INS 
     TEMPO 2220/2224 34012KT 5000 BR VCSH OVC070 
     TEMPO 2302/2306 30006KT 4000 BR FEW000 OVC120 BR FEW000 
     BECMG 2308/2310 19012KT 8000 HZ VCSH OVC050 QNH2980INS 
     TEMPO 2315/2401 VRB15G25KT 3200 -SHRA BR VCTS SCT010 OVC020CB TX23/2312Z TN12/2303Z
       
ORBI 230000Z 32006KT 9999 FEW030 SCT100 13/13 Q1011 NOSIG
TAF ORBI 222200Z 2300/2324 30008KT 8000 SCT030 
     BECMG 2302/2304 VRB03KT 5000 BR 
     BECMG 2308/2311 13008KT 7000 SCT040
       
ORER 230000Z VRB02KT 9000 FEW045 BKN090 11/10 Q1012 NOSIG
TAF ORER 222200Z 2300/2324 VRB03KT 8000 SCT030 
     TEMPO 2300/2306 6000 SHRA 
     BECMG 2309/2311 NSC
       
ORMM 230000Z 00000KT CAVOK 11/06 Q1011 NOSIG
TAF ORMM 222200Z 2300/2324 14006KT 9999 NSC
       
ORNI 230000Z 34005KT 8000 NSC 14/12 Q1011 NOSIG
TAF ORNI 222200Z 2300/2324 30008KT 8000 NSC 
     BECMG 2302/2304 VRB03KT 5000 BR 
     BECMG 2308/2311 13008KT 7000
       
ORSU 230000Z 31010KT 7000 BKN040 BKN080 10/10 Q1013
TAF ORSU 222300Z 2300/2400 32006KT 5000 BR BKN040 SCT080 
     TEMPO 2301/2306 3000 SHRA BKN040 BKN070 
     BECMG 2306/2308 16010KT 7000 BKN040 BKN080 
     TEMPO 2312/2318 12010KT 5000 TSSHRA FEW035CB OVC040
       
ORBD 222355Z 27005KT 5000 BR FEW110 SCT180 12/11 A2986 RMK WND DATA ALSTG ESTMD
TAF COR ORBD 221855Z 2219/2401 17006KT 8000 HZ SCT030 BKN120 QNH2981INS 
     TEMPO 2220/2224 34012KT 5000 BR VCSH OVC070 
     TEMPO 2302/2306 30006KT 4000 BR FEW000 OVC120 BR FEW000 
     BECMG 2308/2310 19012KT 8000 HZ VCSH OVC050 QNH2980INS 
     TEMPO 2315/2401 VRB15G25KT 3200 -SHRA BR VCTS SCT010 OVC020CB TX23/2312Z TN12/2303Z
       
ORBI 230000Z 32006KT 9999 FEW030 SCT100 13/13 Q1011 NOSIG
TAF ORBI 222200Z 2300/2324 30008KT 8000 SCT030 
     BECMG 2302/2304 VRB03KT 5000 BR 
     BECMG 2308/2311 13008KT 7000 SCT040
       
ORER 230000Z VRB02KT 9000 FEW045 BKN090 11/10 Q1012 NOSIG
TAF ORER 222200Z 2300/2324 VRB03KT 8000 SCT030 
     TEMPO 2300/2306 6000 SHRA 
     BECMG 2309/2311 NSC
       
ORMM 230000Z 00000KT CAVOK 11/06 Q1011 NOSIG
TAF ORMM 222200Z 2300/2324 14006KT 9999 NSC
       
ORNI 230000Z 34005KT 8000 NSC 14/12 Q1011 NOSIG
TAF ORNI 222200Z 2300/2324 30008KT 8000 NSC 
     BECMG 2302/2304 VRB03KT 5000 BR 
     BECMG 2308/2311 13008KT 7000
       
ORSU 230000Z 31010KT 7000 BKN040 BKN080 10/10 Q1013
TAF ORSU 222300Z 2300/2400 32006KT 5000 BR BKN040 SCT080 
     TEMPO 2301/2306 3000 SHRA BKN040 BKN070 
     BECMG 2306/2308 16010KT 7000 BKN040 BKN080 
     TEMPO 2312/2318 12010KT 5000 TSSHRA FEW035CB OVC040